This is the latest recevied weather packets stored in our database for station/object NR0A-4. If no packets are shown the sender has not sent any weather packets the latest 10 day(s).
| Time | Temp. | Humidity | Pressure | Rain* | Wind** | Luminosity | Snow |
|---|---|---|---|---|---|---|---|
| 1777818004 | 15.56° C | 50% | 1012.2 hPa | 0 mm | - | 209 W/m² | - |
| 1777817705 | 15.56° C | 53% | 1012.1 hPa | 0 mm | - | 301 W/m² | - |
| 1777817404 | 15° C | 52% | 1011.9 hPa | 0 mm | - | 211 W/m² | - |
| 1777817104 | 15° C | 52% | 1011.6 hPa | 0 mm | - | 262 W/m² | - |
| 1777816804 | 15° C | 53% | 1011.6 hPa | 0 mm | - | 288 W/m² | - |
| 1777816504 | 14.44° C | 53% | 1011.7 hPa | 0 mm | - | 260 W/m² | - |
| 1777816205 | 14.44° C | 53% | 1011.7 hPa | 0 mm | - | 357 W/m² | - |
| 1777815903 | 13.89° C | 54% | 1011.7 hPa | 0 mm | - | 366 W/m² | - |
| 1777815605 | 13.89° C | 54% | 1011.7 hPa | 0 mm | - | 274 W/m² | - |
| 1777815305 | 13.33° C | 53% | 1011.5 hPa | 0 mm | - | 118 W/m² | - |
| 1777815004 | 13.33° C | 54% | 1011.5 hPa | 0 mm | - | 237 W/m² | - |
| 1777814704 | 13.33° C | 55% | 1011.4 hPa | 0 mm | - | 165 W/m² | - |
| 1777814404 | 13.33° C | 55% | 1011.4 hPa | 0 mm | - | 153 W/m² | - |
| 1777814103 | 12.78° C | 56% | 1011.2 hPa | 0 mm | - | 151 W/m² | - |
| 1777813804 | 12.78° C | 56% | 1011.2 hPa | 0 mm | - | 158 W/m² | - |
| 1777813504 | 12.78° C | 56% | 1011.2 hPa | 0 mm | - | 130 W/m² | - |
| 1777813204 | 12.78° C | 56% | 1011 hPa | 0 mm | - | 74 W/m² | - |
| 1777812903 | 12.78° C | 57% | 1010.7 hPa | 0 mm | - | 105 W/m² | - |
| 1777812605 | 12.22° C | 57% | 1010.7 hPa | 0 mm | - | 130 W/m² | - |
| 1777812303 | 12.22° C | 58% | 1011 hPa | 0 mm | - | 74 W/m² | - |
| 1777812003 | 12.22° C | 58% | 1010.9 hPa | 0 mm | - | 56 W/m² | - |
| 1777811705 | 11.67° C | 58% | 1010.8 hPa | 0 mm | - | 56 W/m² | - |
| 1777811404 | 11.67° C | 58% | 1010.7 hPa | 0 mm | - | 67 W/m² | - |
| 1777811104 | 11.67° C | 57% | 1010.5 hPa | 0 mm | - | 44 W/m² | - |
| 1777810803 | 11.67° C | 57% | 1010.5 hPa | 0 mm | - | 35 W/m² | - |
* Rain latest hour (hover to see other rain measurements)
** Current wind speed in m/s (hover to see current wind gust speed)